Regional Weather Roundup
Issued by NWS

Home | Current Version | Previous Version | Text Only | Print | Product List | Glossary Off
Versions: 1 2 3 4 5 6 7 8 9 10 11 12 13 14 15 16 17 18 19 20 21 22 23 24 25 26 27 28 29 30 31 32 33 34 35 36 37 38 39 40 41 42 43 44 45 46 47 48 49 50

000
ASUS45 KCYS 262210
RWRWY

WYOMING REGIONAL WEATHER ROUNDUP
NATIONAL WEATHER SERVICE CHEYENNE WY
400 PM MDT TUE AUG 26 2014

NOTE:  "FAIR" INDICATES FEW OR NO CLOUDS BELOW 12,000 FEET
WITH NO SIGNIFICANT WEATHER AND/OR OBSTRUCTIONS TO VISIBILITY.

WYZ001-262300-
YELLOWSTONE NATIONAL PARK

CITY           SKY/WX    TMP DP  RH WIND       PRES   REMARKS
LK YELLOWSTONE   N/A     59  43  55 VRB5      30.35F
W YELLOWSTONE  NOT AVBL

$$
WYZ002>013-054>058-071-098>099-262300-
NORTHERN WYOMING

CITY           SKY/WX    TMP DP  RH WIND       PRES   REMARKS
JACKSON        PTSUNNY   70  39  32 VRB3      30.24F
CODY           PTSUNNY   72  50  46 N5        30.16F
GREYBULL       SUNNY     79  43  27 MISG      30.10F
WORLAND        MOSUNNY   76  47  35 N3        30.12F
SHERIDAN       MOSUNNY   78  45  30 CALM      30.14S
BUFFALO        PTSUNNY   70  46  42 VRB3      30.20F
GILLETTE       MOSUNNY   77  48  35 N8        30.15S
HULETT         FAIR      75  52  43 MISG      30.15
NEWCASTLE      FAIR      79  45  29 MISG      30.12

$$
WYZ014>020-022>026-101>103-262300-
CENTRAL WYOMING

CITY           SKY/WX    TMP DP  RH WIND       PRES   REMARKS
BIG PINEY      LGT RAIN  62  36  37 VRB3      30.28S
PINEDALE       MOCLDY    64  37  36 CALM      30.28F
DUBOIS         CLOUDY    66  34  30 NW10      30.24F
LANDER         PTSUNNY   72  47  40 VRB3      30.16F
RIVERTON       MOSUNNY   73  43  33 VRB6      30.17F
CASPER         LGT RAIN  73  53  49 E3        30.15S
DOUGLAS        PTSUNNY   80  48  32 CALM      30.14F

$$
WYZ021-027>030-104>119-262300-
SOUTHERN WYOMING

CITY           SKY/WX    TMP DP  RH WIND       PRES   REMARKS
EVANSTON       PTSUNNY   56  46  69 E14G24    30.29S
KEMMERER       MOCLDY    64  37  36 SE7       30.30R
FORT BRIDGER   CLOUDY    59  46  62 SW18G26   30.35R
ROCK SPRINGS   PTSUNNY   72  34  24 NW8       30.25F
DIXON          FAIR      71  47  42 S9        30.28F
RAWLINS        CLOUDY    72  45  37 SW9       30.26F
SARATOGA       MOCLDY    68  46  45 MISG      30.29S
LARAMIE        PTSUNNY   72  42  34 W6        30.27S
CHEYENNE       PTSUNNY   73  50  44 S14       30.22R
TORRINGTON     MOSUNNY   85  52  32 S5        30.07F
PINE BLUFFS    FAIR      79  48  34 W5        30.16F

$$


USA.gov is the U.S. government's official web portal to all federal, state and local government web resources and services.